Muncie, IN

10:05 PM EST on January 21, 2017 (GMT -0500)
Muncie

Weather History for KMIE - December, 2011

Change the Weather History Date:

Thursday, December 22, 2011

  Actual Average Record
Temperature  
Mean Temperature 41 °F 29 °F  
Max Temperature 44 °F 36 °F 64 °F (1967)
Min Temperature 37 °F 22 °F -21 °F (1989)
Degree Days  
Heating Degree Days 24 36  
Month to date heating degree days 620 730  
Since 1 July heating degree days 1674 1865  
Cooling Degree Days 0 0  
Month to date cooling degree days 0 0  
Year to date cooling degree days 1068 956  
Moisture  
Dew Point 36 °F    
Average Humidity 78    
Maximum Humidity 86    
Minimum Humidity 70    
Precipitation  
Precipitation 0.00 in 0.09 in 1.73 in (1967)
Month to date precipitation 3.80 2.07  
Year to date precipitation 47.82 39.31  
Sea Level Pressure  
Sea Level Pressure 30.05 in    
Wind  
Wind Speed 4 mph (WNW)    
Max Wind Speed 9 mph    
Max Gust Speed 12 mph    
Visibility 9 miles    
Events      
T = Trace of Precipitation, MM = Missing Value Source: NWS Daily Summary

Daily Weather History Graph

Daily Weather History Graph

Search for Another Location

Airport or City:

Trip Planner

Search our weather history database for the weather conditions in past years. The results will help you decide how hot, cold, wet, or windy it might be!

Date:

Astronomy

Dec. 22, 2011 Rise Set
Actual Time 8:01 AM EST 5:19 PM EST
Civil Twilight 7:30 AM EST 5:49 PM EST
Nautical Twilight 6:56 AM EST 6:24 PM EST
Astronomical Twilight 6:22 AM EST 6:57 PM EST
Moon 5:43 AM EST 3:28 PM EST
Length of Visible Light 10h 19m
Length of Day
9h 18m
Waning Crescent, 6% of the Moon is Illuminated
Dec 22
Waning Crescent
Dec 24
New
Jan 1
First Quarter
Jan 9
Full
Jan 16
Last Quarter

Hourly Weather History & Observations

Time (EST) Temp. Windchill Dew Point Humidity Pressure Visibility Wind Dir Wind Speed Gust Speed Precip Events Conditions
12:15 AM 41.0 °F 36.4 °F 37.4 °F 87% 29.98 in 9.0 mi West 6.9 mph - N/A   Overcast
12:43 AM 41.0 °F 37.1 °F 37.4 °F 87% 29.98 in 9.0 mi West 5.8 mph - N/A   Overcast
12:50 AM 41.0 °F 36.4 °F 37.4 °F 87% 29.98 in 8.0 mi West 6.9 mph - N/A   Overcast
12:53 AM 41.0 °F 37.1 °F 37.9 °F 89% 29.99 in 8.0 mi WSW 5.8 mph - N/A   Overcast
1:01 AM 41.0 °F 36.4 °F 37.4 °F 87% 29.99 in 10.0 mi WSW 6.9 mph - N/A   Overcast
1:53 AM 41.0 °F 35.8 °F 37.0 °F 86% 30.00 in 10.0 mi West 8.1 mph - N/A   Overcast
2:14 AM 41.0 °F 36.4 °F 37.4 °F 87% 30.00 in 10.0 mi West 6.9 mph - N/A   Overcast
2:23 AM 41.0 °F 38.0 °F 37.4 °F 87% 30.00 in 10.0 mi West 4.6 mph - N/A   Overcast
3:53 AM 41.0 °F 37.1 °F 37.0 °F 86% 30.04 in 10.0 mi WSW 5.8 mph - N/A   Overcast
4:53 AM 41.0 °F 37.1 °F 36.0 °F 82% 30.06 in 10.0 mi WSW 5.8 mph - N/A   Overcast
5:53 AM 41.0 °F 39.0 °F 36.0 °F 82% 30.06 in 10.0 mi WSW 3.5 mph - N/A   Overcast
6:53 AM 41.0 °F - 36.0 °F 82% 30.07 in 10.0 mi Calm Calm - N/A   Overcast
7:53 AM 41.0 °F - 36.0 °F 82% 30.05 in 10.0 mi Calm Calm - N/A   Overcast
10:08 AM 42.8 °F - 35.6 °F 76% 30.09 in 10.0 mi Calm Calm - N/A   Scattered Clouds
10:53 AM 42.1 °F - 36.0 °F 79% 30.06 in 10.0 mi Calm Calm - N/A   Clear
11:53 AM 43.0 °F 40.3 °F 36.0 °F 76% 30.09 in 10.0 mi South 4.6 mph - N/A   Scattered Clouds
12:32 PM 42.8 °F - 35.6 °F 76% 30.08 in 10.0 mi Calm Calm - N/A   Mostly Cloudy
12:53 PM 43.0 °F 41.3 °F 36.0 °F 76% 30.09 in 10.0 mi SW 3.5 mph - N/A   Overcast
1:53 PM 44.1 °F - 35.1 °F 71% 30.05 in 10.0 mi Calm Calm - N/A   Overcast
2:11 PM 44.6 °F - 35.6 °F 71% 30.04 in 10.0 mi Calm Calm - N/A   Mostly Cloudy
2:34 PM 44.6 °F - 35.6 °F 71% 30.03 in 10.0 mi Calm Calm - N/A   Mostly Cloudy
2:53 PM 43.0 °F 41.3 °F 36.0 °F 76% 30.03 in 10.0 mi NNE 3.5 mph - N/A   Overcast
3:48 PM 42.8 °F 39.3 °F 37.4 °F 81% 30.02 in 10.0 mi North 5.8 mph - N/A   Overcast
3:53 PM 43.0 °F 39.5 °F 37.0 °F 80% 30.02 in 10.0 mi North 5.8 mph - N/A   Overcast
4:53 PM 42.1 °F 38.4 °F 36.0 °F 79% 30.00 in 10.0 mi NE 5.8 mph - N/A   Overcast
6:53 PM 41.0 °F 37.1 °F 37.0 °F 86% 30.08 in 8.0 mi NW 5.8 mph - N/A   Overcast
7:53 PM 39.9 °F - 36.0 °F 86% 30.08 in 9.0 mi Calm Calm - N/A   Overcast
8:53 PM 39.0 °F - 36.0 °F 89% 30.07 in 7.0 mi Calm Calm - N/A   Scattered Clouds
9:53 PM 37.0 °F 32.4 °F 34.0 °F 89% 30.09 in 7.0 mi WNW 5.8 mph - N/A   Clear
10:08 PM 37.4 °F 33.8 °F 35.6 °F 93% 30.08 in 7.0 mi WNW 4.6 mph - N/A   Mostly Cloudy
10:17 PM 37.4 °F 32.8 °F 35.6 °F 93% 30.09 in 7.0 mi WNW 5.8 mph - N/A   Overcast
10:35 PM 39.2 °F 34.2 °F 35.6 °F 87% 30.09 in 8.0 mi NW 6.9 mph - N/A   Overcast
10:53 PM 39.0 °F 34.0 °F 36.0 °F 89% 30.11 in 8.0 mi NW 6.9 mph - N/A   Overcast
11:41 PM 39.2 °F 35.0 °F 35.6 °F 87% 30.10 in 6.0 mi NW 5.8 mph - N/A   Overcast